Location: Unspecified
(0.0000°N, 0.0000°E)
Time: 16:03:43
(UTC+00:00)

DMSP 5D-3 F18 (USA 210) - Pass Details

Date: 19 February 2019
Orbit: 840 x 856 km, 98.6° (Epoch: 18 October)

Event Time Altitude Azimuth Distance (km) Brightness Sun altitude
Rises 05:23:46 0° 13° (NNE) 3,411 7.9 -12.3°
Reaches altitude 10° 05:26:07 10° 14° (NNE) 2,477 7.2 -11.7°
Maximum altitude 05:31:38 86° 103° (ESE) 859 4.8 -10.4°
Drops below altitude 10° 05:37:09 10° 191° (S) 2,480 7.2 -9.0°
Sets 05:39:31 0° 191° (SSW) 3,415 7.9 -8.4°
